Погода в Туймазах

Россия / Республика Башкортостан     54°35′59″N   53°41′42″E
темп.,
°C
ветер,
м/с
пор.,
м/с
влажн.,
%
обл.,
%
осадки,
мм/ч
давл.,
гПа
погр.,
м
22 апреля, чт
чт2223:00+9ююв71440100 0.0 1027886
02:00+7ю71354100 0.1 10281027
05:00+3ю71692100 0.9 1028821
08:00+3ю61495100 0.6 1029713
11:00+7ю71264100 0.6 1029976
14:00+8ю6962100 0.0 10291073
17:00+5ю61181100 0.6 1030690
20:00+3ю51196100 1.8 1030524
23 апреля, пт
пт2323:00+3ю51196100 1.9 1030578
02:00+3ю4996100 0.0 1029434
05:00+2ю3798100 0.1 1029391
08:00+3юв1499100 0.0 1029227
11:00+4юв2496100 0.0 1029270
14:00+11юв3460100 0.0 10271168
17:00+13юв3549100 0.0 10251457
20:00+11вюв2262100 0.0 102411
24 апреля, сб
сб2423:00+8юв2375100 0.0 102351
02:00+8юв4888100 0.1 1022316
05:00+7юв3692100 4.4 1020536
08:00+7в4892100 1.5 1018626
11:00+9юв6972100 1.7 10161177
14:00+8юв5780100 0.4 1015955
17:00+7юв3487100 1.4 1014585
20:00+7ю1288100 0.3 1013152
25 апреля, вс
вс2523:00+6юз2593100 0.4 1013259
02:00+6ю2794100 0.1 1012346
05:00+6ю289428 0.2 1011287
08:00+7ююв61384100 0.1 1010503
11:00+6юз61284100 2.4 10101126
14:00+8зюз7116787 0.1 10131480
17:00+9зюз71067100 0.9 10151258
20:00+8ююз36719 0.3 1015157
26 апреля, пн
пн2623:00+5ю358722 0.3 101686
02:00+4ююз3687100 0.0 1017135
05:00+3ююз3790100 0.0 1017159
08:00+5юз4983100 0.1 1017367
11:00+8зюз4659100 0.1 10171015
14:00+10зюз4639100 0.0 10161709
17:00+11з3441100 0.0 10151763
20:00+8сз2256100 0.0 101420